[[{"header":{"parameterUnit":"m.s-1","parameterCategory":1,"la1":30.2992,"la2":30.254,"lo1":-89.0895,"lo2":-89.0443,"dy":0.0025,"dx":0.0025,"nx":19,"ny":19,"refTime":"2026-03-21T21:00:00:Z","depth":0,"parameterNumber":2,"parameterNumberName":"U-component_of_WINDS"},"data":[0,0,0,3.8823,3.8827,3.9012,3.9013,3.9271,3.9274,0,0,0,0,0,0,0,0,0,0,0,3.8778,3.878,3.8823,3.8828,3.9012,3.9013,3.9271,3.9274,0,0,0,0,0,0,0,0,0,0,0,3.8777,3.878,3.8782,3.8828,3.9012,3.9013,3.927,3.9124,0,0,0,0,0,0,0,0,0,0,3.8941,3.8909,3.8779,3.8782,3.8829,3.9012,3.9013,3.9117,3.9133,3.9196,0,3.9251,0,3.9267,3.9292,3.9293,0,0,0,3.8821,3.8895,3.8935,3.8783,3.8831,3.9011,3.8927,3.9126,3.9144,3.9218,3.9255,3.9264,3.9271,3.9294,3.9295,3.9671,3.9673,0,0,3.8811,3.8818,3.8922,3.8948,3.8916,3.8921,3.8933,3.9137,3.9179,3.9256,3.927,3.9275,3.9296,3.9298,3.967,3.9672,0,0,0,3.8786,3.8811,3.8846,3.8938,3.8969,3.8927,3.894,3.917,3.918,3.9273,3.9278,3.9297,3.9301,3.9667,3.967,3.9777,0,0,0,3.878,3.8796,3.8842,3.8848,3.8965,3.9071,3.8969,3.9166,3.9189,3.9277,3.9298,3.9303,3.9665,3.9669,3.9769,3.9827,0,0,0,3.8763,3.8794,3.8824,3.8848,3.8927,3.9067,3.9089,3.9171,3.9193,3.9293,3.9304,3.9663,3.9668,3.9762,3.9815,3.9927,0,0,0,3.8748,3.8918,3.8826,3.9018,3.8926,3.9131,3.9088,3.9241,3.934,3.9299,3.9665,3.967,3.976,3.9808,3.992,4.0023,4.0066,0,0,3.8966,3.8944,3.9057,3.898,3.9202,3.9102,3.9342,3.9428,3.9434,3.9593,3.9602,3.9772,3.9815,3.9926,4.0305,4.034,0,0,0,3.9128,3.9209,3.9267,3.9359,3.9427,3.9491,3.9538,3.9571,3.9705,3.9515,3.9842,3.9868,3.9933,3.9982,4.0011,4.0067,3.9693,3.9692,3.9692,3.9448,3.9442,3.9629,3.9646,3.9737,3.9784,3.9858,3.991,3.9881,3.9958,4.0005,4.0236,4.0293,4.0315,4.0373,4.0059,4.006,4.006,4.006,3.9767,3.9881,3.9835,3.9999,3.9995,4.0134,4.0187,4.0162,4.0293,4.02,4.0257,4.0157,4.0353,4.0404,4.0068,4.0067,4.0066,4.0065,4.0065,3.9975,4.0029,4.0063,4.0196,4.03,4.0313,4.044,4.0432,4.0426,4.0482,4.0532,4.053,4.0528,4.0506,4.0507,4.0508,4.0509,4.0509,4.051,4.0178,4.0213,4.0319,4.0404,4.0463,4.0539,4.0589,4.0647,4.071,4.0695,4.0695,4.0659,4.0372,4.03,4.0522,4.052,4.0518,4.0517,4.0516,4.0504,4.0428,4.0592,4.0651,4.0751,4.0855,4.0843,4.0963,4.101,4.1074,4.1025,4.0814,4.0793,4.077,4.071,4.1025,4.1025,4.1025,4.1025,4.068,4.0667,4.0832,4.0926,4.1017,4.1022,4.1211,4.1252,4.1284,4.1313,4.1267,4.1187,4.1164,4.1156,4.1125,4.1069,4.1468,4.1468,4.1469,4.088,4.0875,4.1035,4.1061,4.1139,4.1208,4.1385,4.1498,4.1518,4.1487,4.1337,4.1318,4.1189,4.1148,4.1113,4.1064,4.0962,0,0]},{"header":{"parameterUnit":"m.s-1","parameterCategory":1,"la1":30.2992,"la2":30.254,"lo1":-89.0895,"lo2":-89.0443,"dy":0.0025,"dx":0.0025,"nx":19,"ny":19,"refTime":"2026-03-21T21:00:00:Z","depth":0,"parameterNumber":3,"parameterNumberName":"V-component_of_WINDS"},"data":[0,0,0,2.517,2.5172,2.5253,2.5253,2.537,2.5371,0,0,0,0,0,0,0,0,0,0,0,2.5153,2.5154,2.517,2.5172,2.5253,2.5253,2.537,2.5371,0,0,0,0,0,0,0,0,0,0,0,2.5152,2.5153,2.5155,2.5172,2.5253,2.5253,2.537,2.5304,0,0,0,0,0,0,0,0,0,0,2.5223,2.5214,2.5153,2.5155,2.5173,2.5253,2.5253,2.5301,2.5308,2.5339,0,2.5367,0,2.5371,2.538,2.538,0,0,0,2.5167,2.5208,2.5223,2.5155,2.5174,2.5252,2.5215,2.5305,2.5313,2.5349,2.5368,2.5372,2.5373,2.5381,2.5381,2.5571,2.5572,0,0,2.5163,2.5171,2.5217,2.5229,2.5216,2.5212,2.5217,2.531,2.5332,2.5369,2.5375,2.5375,2.5382,2.5383,2.557,2.5571,0,0,0,2.5153,2.5169,2.5181,2.5224,2.5238,2.5215,2.5221,2.5328,2.5331,2.5376,2.5376,2.5382,2.5384,2.5569,2.5571,2.5634,0,0,0,2.515,2.5163,2.518,2.5186,2.5236,2.5284,2.5237,2.5325,2.5335,2.5376,2.5382,2.5385,2.5568,2.557,2.563,2.5664,0,0,0,2.5145,2.5162,2.5176,2.5186,2.5221,2.5282,2.529,2.5327,2.5335,2.538,2.5386,2.5567,2.5569,2.5626,2.5657,2.5718,0,0,0,2.5143,2.5231,2.5177,2.5276,2.522,2.532,2.529,2.5363,2.541,2.5383,2.5568,2.557,2.5625,2.5653,2.5713,2.5771,2.5795,0,0,2.526,2.5246,2.5303,2.5257,2.5368,2.5307,2.5428,2.5462,2.5459,2.5534,2.5539,2.5631,2.5657,2.5717,2.5925,2.5944,0,0,0,2.5344,2.5386,2.5413,2.5457,2.5484,2.5511,2.5526,2.5539,2.5602,2.5499,2.5668,2.5683,2.5718,2.5745,2.5762,2.5792,2.5583,2.5582,2.5582,2.5523,2.5513,2.5609,2.5609,2.5652,2.5666,2.57,2.572,2.5698,2.5738,2.5761,2.5888,2.5921,2.5933,2.5965,2.5789,2.5789,2.579,2.579,2.5695,2.5754,2.5722,2.5803,2.5792,2.5861,2.5878,2.586,2.5924,2.587,2.59,2.5845,2.5954,2.5982,2.5794,2.5794,2.5793,2.5793,2.5792,2.5814,2.584,2.5853,2.5916,2.5965,2.5962,2.6024,2.6012,2.6001,2.6031,2.6055,2.6054,2.6054,2.6043,2.6043,2.6044,2.6044,2.6044,2.6045,2.5933,2.5945,2.5998,2.6035,2.6062,2.6095,2.611,2.6137,2.6163,2.615,2.615,2.6126,2.5966,2.5927,2.6052,2.605,2.605,2.6049,2.6048,2.6115,2.6072,2.6154,2.6181,2.6223,2.6274,2.6257,2.6312,2.6332,2.6364,2.6332,2.6215,2.6201,2.6188,2.6156,2.6332,2.6332,2.6332,2.6332,2.6217,2.6207,2.6289,2.6333,2.6375,2.6367,2.6463,2.6476,2.6482,2.6494,2.6466,2.6422,2.6409,2.6403,2.6385,2.6356,2.6578,2.6579,2.6579,2.6329,2.6323,2.6407,2.6411,2.6443,2.6471,2.6561,2.6615,2.6612,2.6589,2.6504,2.6494,2.6422,2.6399,2.6376,2.6349,2.6294,0,0]}]]